Regional Weather Roundup
Issued by NWS

Home | Current Version | Previous Version | Graphics & Text | Print | Product List | Glossary On
Versions: 1 2 3 4 5 6 7 8 9 10 11 12 13 14 15 16 17 18 19 20 21 22 23 24 25 26 27 28 29 30 31 32 33 34 35 36 37 38 39 40 41 42 43 44 45 46 47 48 49 50
000
ASUS43 KMPX 250601
RWRMN
WEATHER ROUNDUP FOR MINNESOTA
NATIONAL WEATHER SERVICE TWIN CITIES/CHANHASSEN MN
100 AM CDT TUE APR 25 2017


NOTE: "FAIR" INDICATES FEW OR NO CLOUDS BELOW 12,000 FEET WITH NO
SIGNIFICANT WEATHER AND/OR OBSTRUCTIONS TO VISIBILITY. N/A MEANS
CURRENT SKY AND/OR WEATHER CONDITIONS ARE NOT AVAILABLE.

MNZ060>063-068>070-250700-
   Twin Cities Metro

CITY           SKY/WX    TMP DP  RH WIND       PRES   REMARKS
TWIN CITIES    CLOUDY    58  47  66 SE6       29.53F
6HR MIN TEMP:  58; 6HR MAX TEMP:  68; 6HR PCP:  0.02;

ST PAUL        CLOUDY    56  48  74 SE7       29.54F
CRYSTAL        CLOUDY    58  42  55 E7        29.51F
BLAINE         CLOUDY    59  46  63 E8        29.53F
LAKEVILLE      CLOUDY    61  36  39 SE6       29.53F
EDEN PRAIRIE   CLOUDY    60  44  55 E7        29.51F
6HR MIN TEMP:  55; 6HR MAX TEMP:  68; 6HR PCP:  0.02;

SOUTH ST PAUL  CLOUDY    62  38  41 CALM      29.54F
LAKE ELMO      CLOUDY    59  43  55 E8        29.55F
$$
MNZ001>005-007-008-013>017-022>024-027-028-250700-
   Northwest Minnesota

CITY           SKY/WX    TMP DP  RH WIND       PRES   REMARKS
BEMIDJI        DRIZZLE   39  39  97 NE3       29.58R
HALLOCK        CLOUDY    32  28  86 N13       29.73R WCI  22
ROSEAU         CLOUDY    30  27  86 NE14      29.69S WCI  20
WARROAD        CLOUDY    32  28  86 NE17G24   29.69S WCI  21
THIEF RVR FALL CLOUDY    33  32  96 N16G24    29.65R WCI  23
CROOKSTON      CLOUDY    34  34 100 N16       29.67R WCI  23
FOSSTON        CLOUDY    36  34  93 N10       29.60R
DETROIT LAKES  FOG       41  39  93 NW12      29.58R VSB 1
MOORHEAD       CLOUDY    36  34  93 N18       29.63R
PARK RAPIDS    CLOUDY    45  41  86 NE3       29.55R
MAHNOMEN       CLOUDY    37  36  97 N13       29.59R
$$
MNZ006-009>011-018-025>026-250700-
   North Central Minnesota

CITY           SKY/WX    TMP DP  RH WIND       PRES   REMARKS
BAUDETTE       CLOUDY    33  32  96 NE13      29.65S WCI  24
FLAG ISLAND    LGT SNOW  30  28  93 NE13      29.70F WCI  20
INTL FALLS     LGT RAIN  36  33  89 NE3       29.65R
6HR MIN TEMP:  35; 6HR MAX TEMP:  37; 6HR PCP:  0.20;

WASKISH        RAIN      37  36  93 N7        29.63R
BIG FORK       LGT RAIN  37  36  93 E5        29.60F
LONGVILLE      LGT RAIN  39  37  93 CALM      29.57R
GRAND RAPIDS   LGT RAIN  38  35  89 VRB6      29.61F
CRANE LAKE     DRIZZLE   34  34 100 CALM      29.66S
ORR            CLOUDY    34  32  93 CALM      29.60F
COOK           LGT RAIN  36  34  93 E5        29.61F
WALKER         CLOUDY    40  38  93 E6        29.57R
$$
MNZ012-019>021-037-250700-
   Northeast Minnesota

CITY           SKY/WX    TMP DP  RH WIND       PRES   REMARKS
DULUTH         CLOUDY    39  33  79 E8        29.63R
6HR MIN TEMP:  36; 6HR MAX TEMP:  39; 6HR PCP: TRACE;

ELY            CLOUDY    36  34  93 CALM      29.66R
HIBBING        CLOUDY    36  34  92 E5        29.60F
EVELETH        CLOUDY    37  34  88 E7        29.62F
DULUTH HARBOR  CLOUDY    39  36  87 NE21      29.66R
TWO HARBORS    CLOUDY    43  36  75 E15       29.60F
SILVER BAY     CLOUDY    43  34  70 NE13G22   29.63F
GRAND MARAIS     N/A     45  35  68 NE8       29.69F
G MARAIS ARPRT CLOUDY    34  28  80 NE12      29.69F WCI  25
$$
MNZ029>031-032-039>041-046>048-054>057-064-250700-
   West Central Minnesota

CITY           SKY/WX    TMP DP  RH WIND       PRES   REMARKS
FERGUS FALLS   CLOUDY    37  37 100 NW16      29.58R FOG
WHEATON        CLOUDY    37  36  93 NW15G21   29.62S
MORRIS           N/A     39  37  93 NW18      29.55  FOG
ALEXANDRIA     FOG       43  43 100 NW13      29.53F VSB 1
ELBOW LAKE     CLOUDY    38  38 100 W16       29.57S FOG
WADENA         CLOUDY    46  45  93 N7        29.53R
GLENWOOD       CLOUDY    43  43 100 NW16      29.53S FOG
APPLETON       CLOUDY    41  37  87 NW16G24   29.57R
BENSON         CLOUDY    43  37  81 N16       29.57R
ORTONVILLE     CLOUDY    37  36  93 NW15      29.58S
MADISON        CLOUDY    43  43 100 NW18      29.58S
WILLMAR        CLOUDY    46  45  93 NW14      29.55R
$$
MNZ033>034-036-042>043-049>051-058-059-250700-
   Central Minnesota

CITY           SKY/WX    TMP DP  RH WIND       PRES   REMARKS
ST CLOUD       CLOUDY    57  45  64 SE7       29.51F
6HR MIN TEMP:  55; 6HR MAX TEMP:  60; 6HR PCP: TRACE;

SAUK CENTRE    CLOUDY    51  45  77 W3        29.51S
PAYNESVILLE    CLOUDY    57  44  61 S6        29.51S
AITKIN         MIX PCPN  41  36  81 E7        29.55F
PINE RIVER     CLOUDY    39  39 100 NE5       29.59F
BRAINERD       LGT RAIN  44  39  82 E5        29.54F
STAPLES        CLOUDY    46  45  93 NE3       29.53S
LONG PRAIRIE   CLOUDY    50  43  76 CALM      29.51S
LITTLE FALLS   CLOUDY    52  45  76 E5        29.52S
LITCHFIELD     CLOUDY    57  48  72 CALM      29.51S
BUFFALO        CLOUDY    56  44  64 E5        29.52F
MAPLE LAKE     CLOUDY    58  46  65 E3        29.52F
HUTCHINSON     CLOUDY    56  48  73 E5        29.50F
$$
MNZ037-044-045-052-053-250700-
   East Central Minnesota

CITY           SKY/WX    TMP DP  RH WIND       PRES   REMARKS
PRINCETON      LGT RAIN  57  46  67 SE6       29.54F
MORA           DRIZZLE   43  36  75 NE5       29.59S
CAMBRIDGE      RAIN      59  45  58 SE5       29.54F
RUSH CITY      LGT RAIN  59  40  49 S12G18    29.58R
MOOSE LAKE     LGT RAIN  36  34  93 NE8       29.61R
HINCKLEY       CLOUDY    41  36  81 N7        29.59F
CLOQUET        CLOUDY    37  32  81 E6        29.63S
MCGREGOR       CLOUDY    37  36  93 E8        29.59F
$$
MNZ071>073-080-081-089-090-097-098-250700-
   Southwest Minnesota

CITY           SKY/WX    TMP DP  RH WIND       PRES   REMARKS
MONTEVIDEO     CLOUDY    43  39  87 N15G22    29.56R
GRANITE FALLS  CLOUDY    44  41  89 NW15      29.58R
CANBY          CLOUDY    41  38  89 NW13G22   29.59R
MARSHALL       CLOUDY    41  38  89 N18       29.56R
REDWOOD FALLS  CLOUDY    49  43  80 NW15      29.53R
OLIVIA         CLOUDY    46  43  87 NW15      29.52S
PIPESTONE      CLOUDY    46  39  76 N8        29.54S
WINDOM         PTCLDY    50  46  87 NW17      29.53R
WORTHINGTON    PTCLDY    49  44  83 N13       29.53S
JACKSON        CLOUDY    59  41  51 W6        29.52R
TRACY          CLOUDY    44  40  87 NW16      29.56S
SLAYTON        PTCLDY    45  42  89 N16       29.55S
$$
MNZ065>067-074>077-082>085-091>093-250700-
   South Central Minnesota

CITY           SKY/WX    TMP DP  RH WIND       PRES   REMARKS
MANKATO        CLOUDY    61  34  36 S10       29.51F
NEW ULM        CLOUDY    55  43  62 S6        29.50R
ST JAMES       CLOUDY    55  45  67 SW8       29.51R
FAIRMONT       CLOUDY    60  37  42 S12       29.51S
GLENCOE        CLOUDY    57  50  77 E6        29.50S
FARIBAULT      CLOUDY    64  32  29 SE16      29.53F
OWATONNA       CLOUDY    63  30  29 S14       29.54F
WASECA         CLOUDY    61  32  33 SE13G18   29.54F
ALBERT LEA     CLOUDY    59  30  33 S9        29.55S
$$
MNZ078>079-086>088-094>096-250700-
   Southeast Minnesota

CITY           SKY/WX    TMP DP  RH WIND       PRES   REMARKS
ROCHESTER      CLOUDY    57  34  41 S13       29.59F
6HR MIN TEMP:  57; 6HR MAX TEMP:  65;

RED WING       CLOUDY    64  28  25 SE12      29.55F
DODGE CENTER   CLOUDY    61  32  33 S16       29.56F
WINONA         CLOUDY    63  32  31 S5        29.60F
AUSTIN         MOCLDY    57  34  41 S7        29.56F
PRESTON        CLOUDY    58  31  36 S12       29.60S
$$
ABBREVIATIONS USED IN REMARKS
   TC - TEMPERATURES IN CELSIUS
  WCI - WIND CHILL INDEX
   HX - HEAT INDEX
  VSB - VISIBILITY
$$




USA.gov is the U.S. government's official web portal to all federal, state and local government web resources and services.